This is the latest recevied weather packets stored in our database for station/object W3AJR. If no packets are shown the sender has not sent any weather packets the latest 10 day(s).
| Time | Temp. | Humidity | Pressure | Rain* | Wind** | Luminosity | Snow |
|---|---|---|---|---|---|---|---|
| 1778279948 | 21.11° C | 37% | 1010.6 hPa | 0 mm | - | 132 W/m² | - |
| 1778279646 | 21.11° C | 37% | 1010.5 hPa | 0 mm | - | 151 W/m² | - |
| 1778279343 | 21.11° C | 37% | 1010.7 hPa | 0 mm | - | 150 W/m² | - |
| 1778279040 | 21.11° C | 36% | 1010.6 hPa | 0 mm | - | 177 W/m² | - |
| 1778278736 | 21.11° C | 36% | 1010.8 hPa | 0 mm | - | 212 W/m² | - |
| 1778278432 | 21.67° C | 36% | 1010.6 hPa | 0 mm | - | 229 W/m² | - |
| 1778278128 | 21.11° C | 36% | 1010.7 hPa | 0 mm | - | 74 W/m² | - |
| 1778277825 | 21.11° C | 37% | 1010.8 hPa | 0 mm | - | 75 W/m² | - |
| 1778277521 | 21.11° C | 37% | 1010.7 hPa | 0 mm | - | 71 W/m² | - |
| 1778277218 | 21.67° C | 35% | 1010.6 hPa | 0 mm | - | 109 W/m² | - |
| 1778276915 | 21.67° C | 37% | 1010.7 hPa | 0 mm | - | 145 W/m² | - |
| 1778276612 | 22.22° C | 37% | 1010.7 hPa | 0 mm | - | 140 W/m² | - |
| 1778276308 | 22.22° C | 37% | 1010.6 hPa | 0 mm | - | 149 W/m² | - |
| 1778276005 | 22.22° C | 35% | 1010.7 hPa | 0 mm | - | 124 W/m² | - |
| 1778275702 | 21.67° C | 32% | 1010.7 hPa | 0 mm | - | 104 W/m² | - |
| 1778275398 | 22.22° C | 33% | 1010.5 hPa | 0 mm | - | 77 W/m² | - |
| 1778275094 | 22.22° C | 33% | 1010.6 hPa | 0 mm | - | 99 W/m² | - |
| 1778274789 | 22.22° C | 33% | 1010.8 hPa | 0 mm | - | 103 W/m² | - |
| 1778274488 | 22.22° C | 34% | 1010.5 hPa | 0 mm | - | 296 W/m² | - |
| 1778274184 | 22.22° C | 34% | 1010.5 hPa | 0 mm | - | 355 W/m² | - |
| 1778273881 | 22.78° C | 31% | 1010.7 hPa | 0 mm | - | 475 W/m² | - |
| 1778273577 | 22.78° C | 32% | 1010.8 hPa | 0 mm | - | 477 W/m² | - |
| 1778273274 | 23.33° C | 29% | 1010.8 hPa | 0 mm | - | 429 W/m² | - |
| 1778272970 | 22.78° C | 31% | 1010.8 hPa | 0 mm | - | 490 W/m² | - |
| 1778272666 | 22.78° C | 30% | 1011 hPa | 0 mm | - | 533 W/m² | - |
* Rain latest hour (hover to see other rain measurements)
** Current wind speed in m/s (hover to see current wind gust speed)